Location: Catenanuova
(37.5690°N, 14.6870°E)
Time: 20:53:54
(UTC+02:00)

BlueWalker 3 - Pass Details

Date: 15 May 2025
Orbit: 460 x 472 km, 53.2° (Epoch: 16 June)

Event Time Altitude Azimuth Distance (km) Brightness Sun altitude
Rises 00:09:22 0° 322° (NW) 2,497 6.4 -32.4°
Reaches altitude 10° 00:11:56 10° 340° (NNW) 1,622 5.3 -32.6°
Enters shadow 00:12:40 14° 349° (N) 1,416 5.0 -32.6°
